SL-16 DEB

Satellite information

Favourite Embed

Satellite Type and Status

DEBRISIN ORBIT

Key statistics

Satellite SL-16 DEB at a glance.

Uptime

14563

Days in orbit

Revolutions

≈ 13.7

Per day

Orbit

LEO

Low Earth Orbit

Inclination

71.0

Latest

Satellite identification and parameters

Extended collection of information and parameters for SL-16 DEB.

Object identification

Identified? True

Debris? True

Object name: SL-16 DEB

International designator: 1985-097F

Object number (NORAD): 16392

Object ID (CCSDS): 16392

Country: COMMONWEALTH OF INDEPENDENT STATES (CIS)

Current information (Y/N): Y

RCS size: SMALL

Orbital parameters

Period: 104.731 minutes

Inclination: 70.97 deg

SMA: 7359.995 km

Apoapsis: 1129.595 km

Periapsis: 834.126 km

RAAN: 43.6806 deg

Eccentricy: 0.02007267

Argument of periapsis: 2.3187 deg

Mean anomaly: 124.0867 deg

Mean motion: 13.74948571 rev/day

Mean motion (dot): 0.00000092 rev/day2

B* drag term: 0.00012265489 1/REarth

Two-line elements (TLE)

Creation date: Sept. 3, 2025, 2:21 a.m.

Reference frame: TEME

Reference center: EARTH

Epoch: Sept. 2, 2025, 9:08 p.m. UTC

TLE line 0: 0 SL-16 DEB

TLE line 1: 1 16392U 85097F 25245.88071897 .00000092 00000-0 12265-3 0 9996

TLE line 2: 2 16392 70.9700 43.6806 0200727 2.3187 124.0867 13.74948571998656

Live tracking on map

Real-time ground track for satellite SL-16 DEB.

In-orbit conjunctions

A list of the most updated potential collisions computed for object SL-16 DEB.

Target Orbit TCA Probability of collision Miss distance Type
FENGYUN 1C DEB SSO 2024-11-15 03:09:44 0.0001945663 241.0 (m) DEBRIS
THORAD AGENA D DEB SSO 2024-11-12 14:05:36 0.0001972543 119.0 (m) DEBRIS

Associated space launch

Dynamic simulator of the Tselina-2 ELINT satellite

SL-16 DEB was lifted into orbit during the mission ‘Zenit-2 | GVM Tselina-2’, on board a Zenit-2 space rocket.

The launch took place on Oct. 22, 1985, 7 a.m. from 45/1.

For more information about the launch, click the button.

Launch to space Zenit-2 | GVM Tselina-2
Zenit-2 | GVM Tselina-2

Agency: N/A

Status: Launch Successful

Launch date: Oct. 22, 1985, 7 a.m. UTC

Rocket: Zenit-2

Launch pad: 45/1

Location: Baikonur Cosmodrome, Republic of Kazakhstan

...

Latest news about this satellite

There are no fresh news available about this satellite. Check back as we update our databases every day.


Newsletter sign-up

Weekly statistics, charts and insights to help you stay on top of the space industry.